﻿測定場所 (Monitoring sites),日付 (Measurement date),時間 (Measurement time),線量率 最大値 (max) μGy/h,線量率 最小値 (min) μGy/h,線量率 平均値 (average) μGy/h,
江東 (Koto),2022-01-16,23:01～24:00,0.0395,0.0356,0.0374,
江東 (Koto),2022-01-16,22:01～23:00,0.0397,0.0358,0.0375,
江東 (Koto),2022-01-16,21:01～22:00,0.0405,0.0356,0.0374,
江東 (Koto),2022-01-16,20:01～21:00,0.0395,0.0351,0.0376,
江東 (Koto),2022-01-16,19:01～20:00,0.0391,0.0341,0.0370,
江東 (Koto),2022-01-16,18:01～19:00,0.0394,0.0350,0.0372,
江東 (Koto),2022-01-16,17:01～18:00,0.0388,0.0356,0.0374,
江東 (Koto),2022-01-16,16:01～17:00,0.0394,0.0350,0.0372,
江東 (Koto),2022-01-16,15:01～16:00,0.0392,0.0350,0.0373,
江東 (Koto),2022-01-16,14:01～15:00,0.0394,0.0348,0.0372,
江東 (Koto),2022-01-16,13:01～14:00,0.0398,0.0351,0.0374,
江東 (Koto),2022-01-16,12:01～13:00,0.0396,0.0353,0.0373,
江東 (Koto),2022-01-16,11:01～12:00,0.0402,0.0353,0.0374,
江東 (Koto),2022-01-16,10:01～11:00,0.0393,0.0356,0.0375,
江東 (Koto),2022-01-16,09:01～10:00,0.0397,0.0357,0.0376,
江東 (Koto),2022-01-16,08:01～09:00,0.0406,0.0355,0.0378,
江東 (Koto),2022-01-16,07:01～08:00,0.0396,0.0350,0.0376,
江東 (Koto),2022-01-16,06:01～07:00,0.0392,0.0359,0.0375,
江東 (Koto),2022-01-16,05:01～06:00,0.0398,0.0354,0.0374,
江東 (Koto),2022-01-16,04:01～05:00,0.0391,0.0354,0.0376,
江東 (Koto),2022-01-16,03:01～04:00,0.0399,0.0350,0.0373,
江東 (Koto),2022-01-16,02:01～03:00,0.0392,0.0354,0.0375,
江東 (Koto),2022-01-16,01:01～02:00,0.0398,0.0340,0.0371,
江東 (Koto),2022-01-16,00:01～01:00,0.0387,0.0354,0.0371,
江東 (Koto),2022-01-15,23:01～24:00,0.0395,0.0350,0.0371,
江東 (Koto),2022-01-15,22:01～23:00,0.0388,0.0345,0.0370,
江東 (Koto),2022-01-15,21:01～22:00,0.0384,0.0347,0.0368,
江東 (Koto),2022-01-15,20:01～21:00,0.0391,0.0350,0.0372,
江東 (Koto),2022-01-15,19:01～20:00,0.0394,0.0351,0.0371,
江東 (Koto),2022-01-15,18:01～19:00,0.0391,0.0343,0.0370,
江東 (Koto),2022-01-15,17:01～18:00,0.0396,0.0352,0.0371,
江東 (Koto),2022-01-15,16:01～17:00,0.0401,0.0347,0.0371,
江東 (Koto),2022-01-15,15:01～16:00,0.0394,0.0349,0.0370,
江東 (Koto),2022-01-15,14:01～15:00,0.0391,0.0348,0.0369,
江東 (Koto),2022-01-15,13:01～14:00,0.0388,0.0344,0.0369,
江東 (Koto),2022-01-15,12:01～13:00,0.0393,0.0348,0.0371,
江東 (Koto),2022-01-15,11:01～12:00,0.0389,0.0351,0.0371,
江東 (Koto),2022-01-15,10:01～11:00,0.0391,0.0353,0.0370,
江東 (Koto),2022-01-15,09:01～10:00,0.0398,0.0354,0.0373,
江東 (Koto),2022-01-15,08:01～09:00,0.0397,0.0352,0.0373,
江東 (Koto),2022-01-15,07:01～08:00,0.0395,0.0353,0.0373,
江東 (Koto),2022-01-15,06:01～07:00,0.0401,0.0359,0.0374,
江東 (Koto),2022-01-15,05:01～06:00,0.0387,0.0353,0.0371,
江東 (Koto),2022-01-15,04:01～05:00,0.0401,0.0344,0.0373,
江東 (Koto),2022-01-15,03:01～04:00,0.0398,0.0347,0.0372,
江東 (Koto),2022-01-15,02:01～03:00,0.0393,0.0359,0.0374,
江東 (Koto),2022-01-15,01:01～02:00,0.0391,0.0349,0.0373,
江東 (Koto),2022-01-15,00:01～01:00,0.0396,0.0348,0.0372,
江東 (Koto),2022-01-14,23:01～24:00,0.0411,0.0349,0.0376,
江東 (Koto),2022-01-14,22:01～23:00,0.0395,0.0354,0.0375,
江東 (Koto),2022-01-14,21:01～22:00,0.0391,0.0355,0.0375,
江東 (Koto),2022-01-14,20:01～21:00,0.0398,0.0333,0.0373,
江東 (Koto),2022-01-14,19:01～20:00,0.0404,0.0361,0.0375,
江東 (Koto),2022-01-14,18:01～19:00,0.0395,0.0349,0.0372,
江東 (Koto),2022-01-14,17:01～18:00,0.0398,0.0354,0.0373,
江東 (Koto),2022-01-14,16:01～17:00,0.0395,0.0357,0.0377,
江東 (Koto),2022-01-14,15:01～16:00,0.0392,0.0355,0.0373,
江東 (Koto),2022-01-14,14:01～15:00,0.0397,0.0351,0.0375,
江東 (Koto),2022-01-14,13:01～14:00,0.0393,0.0351,0.0373,
江東 (Koto),2022-01-14,12:01～13:00,0.0398,0.0353,0.0375,
江東 (Koto),2022-01-14,11:01～12:00,0.0400,0.0357,0.0379,
江東 (Koto),2022-01-14,10:01～11:00,0.0396,0.0352,0.0377,
江東 (Koto),2022-01-14,09:01～10:00,0.0409,0.0360,0.0378,
江東 (Koto),2022-01-14,08:01～09:00,0.0398,0.0360,0.0377,
江東 (Koto),2022-01-14,07:01～08:00,0.0397,0.0358,0.0379,
江東 (Koto),2022-01-14,06:01～07:00,0.0400,0.0360,0.0378,
江東 (Koto),2022-01-14,05:01～06:00,0.0401,0.0357,0.0377,
江東 (Koto),2022-01-14,04:01～05:00,0.0398,0.0361,0.0379,
江東 (Koto),2022-01-14,03:01～04:00,0.0396,0.0357,0.0378,
江東 (Koto),2022-01-14,02:01～03:00,0.0389,0.0357,0.0375,
江東 (Koto),2022-01-14,01:01～02:00,0.0404,0.0353,0.0375,
江東 (Koto),2022-01-14,00:01～01:00,0.0399,0.0355,0.0374,
江東 (Koto),2022-01-13,23:01～24:00,0.0393,0.0350,0.0376,
江東 (Koto),2022-01-13,22:01～23:00,0.0399,0.0354,0.0375,
江東 (Koto),2022-01-13,21:01～22:00,0.0400,0.0353,0.0375,
江東 (Koto),2022-01-13,20:01～21:00,0.0406,0.0355,0.0375,
江東 (Koto),2022-01-13,19:01～20:00,0.0398,0.0352,0.0374,
江東 (Koto),2022-01-13,18:01～19:00,0.0398,0.0356,0.0377,
江東 (Koto),2022-01-13,17:01～18:00,0.0395,0.0360,0.0376,
江東 (Koto),2022-01-13,16:01～17:00,0.0401,0.0350,0.0375,
江東 (Koto),2022-01-13,15:01～16:00,0.0391,0.0356,0.0377,
江東 (Koto),2022-01-13,14:01～15:00,0.0400,0.0356,0.0375,
江東 (Koto),2022-01-13,13:01～14:00,0.0390,0.0343,0.0374,
江東 (Koto),2022-01-13,12:01～13:00,0.0402,0.0350,0.0376,
江東 (Koto),2022-01-13,11:01～12:00,0.0395,0.0347,0.0373,
江東 (Koto),2022-01-13,10:01～11:00,0.0397,0.0351,0.0376,
江東 (Koto),2022-01-13,09:01～10:00,0.0391,0.0356,0.0374,
江東 (Koto),2022-01-13,08:01～09:00,0.0391,0.0351,0.0372,
江東 (Koto),2022-01-13,07:01～08:00,0.0393,0.0351,0.0374,
江東 (Koto),2022-01-13,06:01～07:00,0.0395,0.0357,0.0375,
江東 (Koto),2022-01-13,05:01～06:00,0.0393,0.0340,0.0373,
江東 (Koto),2022-01-13,04:01～05:00,0.0396,0.0351,0.0371,
江東 (Koto),2022-01-13,03:01～04:00,0.0398,0.0353,0.0374,
江東 (Koto),2022-01-13,02:01～03:00,0.0394,0.0350,0.0371,
江東 (Koto),2022-01-13,01:01～02:00,0.0400,0.0347,0.0373,
江東 (Koto),2022-01-13,00:01～01:00,0.0399,0.0354,0.0373,
江東 (Koto),2022-01-12,23:01～24:00,0.0398,0.0354,0.0377,
江東 (Koto),2022-01-12,22:01～23:00,0.0397,0.0353,0.0377,
江東 (Koto),2022-01-12,21:01～22:00,0.0404,0.0354,0.0375,
江東 (Koto),2022-01-12,20:01～21:00,0.0390,0.0357,0.0375,
江東 (Koto),2022-01-12,19:01～20:00,0.0401,0.0355,0.0377,
江東 (Koto),2022-01-12,18:01～19:00,0.0405,0.0351,0.0376,
江東 (Koto),2022-01-12,17:01～18:00,0.0391,0.0333,0.0372,
江東 (Koto),2022-01-12,16:01～17:00,0.0396,0.0357,0.0374,
江東 (Koto),2022-01-12,15:01～16:00,0.0396,0.0347,0.0371,
江東 (Koto),2022-01-12,14:01～15:00,0.0395,0.0342,0.0371,
江東 (Koto),2022-01-12,13:01～14:00,0.0402,0.0348,0.0373,
江東 (Koto),2022-01-12,12:01～13:00,0.0398,0.0353,0.0373,
江東 (Koto),2022-01-12,11:01～12:00,0.0402,0.0350,0.0372,
江東 (Koto),2022-01-12,10:01～11:00,0.0393,0.0349,0.0371,
江東 (Koto),2022-01-12,09:01～10:00,0.0398,0.0357,0.0374,
江東 (Koto),2022-01-12,08:01～09:00,0.0401,0.0350,0.0379,
江東 (Koto),2022-01-12,07:01～08:00,0.0409,0.0357,0.0378,
江東 (Koto),2022-01-12,06:01～07:00,0.0402,0.0356,0.0381,
江東 (Koto),2022-01-12,05:01～06:00,0.0402,0.0356,0.0378,
江東 (Koto),2022-01-12,04:01～05:00,0.0396,0.0360,0.0377,
江東 (Koto),2022-01-12,03:01～04:00,0.0399,0.0358,0.0375,
江東 (Koto),2022-01-12,02:01～03:00,0.0393,0.0348,0.0375,
江東 (Koto),2022-01-12,01:01～02:00,0.0397,0.0350,0.0377,
江東 (Koto),2022-01-12,00:01～01:00,0.0396,0.0347,0.0375,
江東 (Koto),2022-01-11,23:01～24:00,0.0395,0.0359,0.0375,
江東 (Koto),2022-01-11,22:01～23:00,0.0396,0.0353,0.0376,
江東 (Koto),2022-01-11,21:01～22:00,0.0391,0.0347,0.0372,
江東 (Koto),2022-01-11,20:01～21:00,0.0396,0.0354,0.0376,
江東 (Koto),2022-01-11,19:01～20:00,0.0416,0.0360,0.0390,
江東 (Koto),2022-01-11,18:01～19:00,0.0464,0.0402,0.0433,
江東 (Koto),2022-01-11,17:01～18:00,0.0450,0.0380,0.0412,
江東 (Koto),2022-01-11,16:01～17:00,0.0418,0.0373,0.0397,
江東 (Koto),2022-01-11,15:01～16:00,0.0488,0.0400,0.0432,
江東 (Koto),2022-01-11,14:01～15:00,0.0509,0.0457,0.0482,
江東 (Koto),2022-01-11,13:01～14:00,0.0485,0.0410,0.0459,
江東 (Koto),2022-01-11,12:01～13:00,0.0449,0.0361,0.0394,
江東 (Koto),2022-01-11,11:01～12:00,0.0413,0.0358,0.0379,
江東 (Koto),2022-01-11,10:01～11:00,0.0425,0.0369,0.0393,
江東 (Koto),2022-01-11,09:01～10:00,0.0459,0.0387,0.0427,
江東 (Koto),2022-01-11,08:01～09:00,0.0500,0.0426,0.0460,
江東 (Koto),2022-01-11,07:01～08:00,0.0500,0.0412,0.0452,
江東 (Koto),2022-01-11,06:01～07:00,0.0460,0.0384,0.0416,
江東 (Koto),2022-01-11,05:01～06:00,0.0419,0.0358,0.0388,
江東 (Koto),2022-01-11,04:01～05:00,0.0397,0.0357,0.0377,
江東 (Koto),2022-01-11,03:01～04:00,0.0402,0.0355,0.0374,
江東 (Koto),2022-01-11,02:01～03:00,0.0396,0.0353,0.0374,
江東 (Koto),2022-01-11,01:01～02:00,0.0399,0.0352,0.0374,
江東 (Koto),2022-01-11,00:01～01:00,0.0389,0.0352,0.0374,
江東 (Koto),2022-01-10,23:01～24:00,0.0398,0.0351,0.0374,
江東 (Koto),2022-01-10,22:01～23:00,0.0391,0.0350,0.0375,
江東 (Koto),2022-01-10,21:01～22:00,0.0396,0.0350,0.0374,
江東 (Koto),2022-01-10,20:01～21:00,0.0395,0.0347,0.0373,
江東 (Koto),2022-01-10,19:01～20:00,0.0391,0.0357,0.0374,
江東 (Koto),2022-01-10,18:01～19:00,0.0398,0.0358,0.0375,
江東 (Koto),2022-01-10,17:01～18:00,0.0393,0.0353,0.0374,
江東 (Koto),2022-01-10,16:01～17:00,0.0395,0.0353,0.0374,
江東 (Koto),2022-01-10,15:01～16:00,0.0395,0.0357,0.0376,
江東 (Koto),2022-01-10,14:01～15:00,0.0395,0.0352,0.0377,
江東 (Koto),2022-01-10,13:01～14:00,0.0394,0.0357,0.0376,
江東 (Koto),2022-01-10,12:01～13:00,0.0398,0.0357,0.0378,
江東 (Koto),2022-01-10,11:01～12:00,0.0404,0.0354,0.0379,
江東 (Koto),2022-01-10,10:01～11:00,0.0402,0.0350,0.0378,
江東 (Koto),2022-01-10,09:01～10:00,0.0400,0.0360,0.0378,
江東 (Koto),2022-01-10,08:01～09:00,0.0392,0.0352,0.0376,
江東 (Koto),2022-01-10,07:01～08:00,0.0406,0.0353,0.0378,
江東 (Koto),2022-01-10,06:01～07:00,0.0402,0.0357,0.0377,
江東 (Koto),2022-01-10,05:01～06:00,0.0395,0.0355,0.0377,
江東 (Koto),2022-01-10,04:01～05:00,0.0402,0.0351,0.0376,
江東 (Koto),2022-01-10,03:01～04:00,0.0398,0.0356,0.0377,
江東 (Koto),2022-01-10,02:01～03:00,0.0398,0.0354,0.0376,
江東 (Koto),2022-01-10,01:01～02:00,0.0398,0.0353,0.0376,
江東 (Koto),2022-01-10,00:01～01:00,0.0395,0.0356,0.0377,
